Regional Weather Roundup
Issued by NWS

Home | Current Version | Previous Version | Graphics & Text | Print | Product List | Glossary On
Versions: 1 2 3 4 5 6 7 8 9 10 11 12 13 14 15 16 17 18 19 20 21 22 23 24 25 26 27 28 29 30 31 32 33 34 35 36 37 38 39 40 41 42 43 44 45 46 47 48 49 50
000
ASUS43 KMPX 271201
RWRMN
WEATHER ROUNDUP FOR MINNESOTA
NATIONAL WEATHER SERVICE TWIN CITIES/CHANHASSEN MN
700 AM CDT MON APR 27 2015


NOTE: "FAIR" INDICATES FEW OR NO CLOUDS BELOW 12,000 FEET WITH NO
SIGNIFICANT WEATHER AND/OR OBSTRUCTIONS TO VISIBILITY. N/A MEANS
CURRENT SKY AND/OR WEATHER CONDITIONS ARE NOT AVAILABLE.

MNZ060>063-068>070-271300-
   Twin Cities Metro

CITY           SKY/WX    TMP DP  RH WIND       PRES   REMARKS
TWIN CITIES    PTCLDY    43  29  57 N3        30.20S
6HR MIN TEMP:  39; 6HR MAX TEMP:  50;

ST PAUL        CLEAR     40  29  64 NW3       30.21S
CRYSTAL        CLEAR     36  29  75 CALM      30.20S
BLAINE         CLEAR     36  30  80 CALM      30.20S
LAKEVILLE      CLEAR     39  27  60 CALM      30.20R
EDEN PRAIRIE   CLEAR     41  27  57 N6        30.19R
6HR MIN TEMP:  39; 6HR MAX TEMP:  48;

SOUTH ST PAUL  CLEAR     38  29  69 CALM      30.20S
LAKE ELMO      FAIR      34  30  86 NE5       30.21S WCI  30
$$
MNZ001>005-007-008-013>017-022>024-027-028-271300-
   Northwest Minnesota

CITY           SKY/WX    TMP DP  RH WIND       PRES   REMARKS
BEMIDJI        CLEAR     29  22  76 CALM      30.21R
HALLOCK        MOCLDY    39  21  48 S5        30.19R
ROSEAU         PTCLDY    34  28  80 CALM      30.19S
WARROAD        PTCLDY    36  28  75 SE3       30.20F
THIEF RVR FALL MOCLDY    39  21  48 S3        30.20S
CROOKSTON      PTCLDY    37  27  65 S7        30.20S
FOSSTON        PTCLDY    36  27  69 S3        30.20S
DETROIT LAKES  PTCLDY    36  30  80 CALM      30.22R
MOORHEAD       PTCLDY    36  21  55 CALM      30.22R
PARK RAPIDS    CLEAR     30  23  75 CALM      30.20S
MAHNOMEN       FAIR      37  25  60 S5        30.20R
$$
MNZ006-009>011-018-025>026-271300-
   North Central Minnesota

CITY           SKY/WX    TMP DP  RH WIND       PRES   REMARKS
BAUDETTE       PTCLDY    34  28  79 CALM      30.21S
FLAG ISLAND    PTCLDY    43  28  56 SE5       30.20S
INTL FALLS     CLEAR     28  24  85 CALM      30.22S
6HR MIN TEMP:  23; 6HR MAX TEMP:  29;

WASKISH        CLEAR     30  27  86 CALM      30.21S
BIG FORK       CLEAR     27  21  80 CALM      30.21F
LONGVILLE      CLEAR     27  27 100 CALM      30.21S
GRAND RAPIDS   CLEAR     27  18  69 CALM      30.21S
CRANE LAKE     CLEAR     23  21  93 CALM      30.25S
ORR            CLEAR     25  19  80 CALM      30.20F
COOK           CLEAR     25  21  86 CALM      30.22F
WALKER         FAIR      28  22  79 W3        30.20S
$$
MNZ012-019>021-037-271300-
   Northeast Minnesota

CITY           SKY/WX    TMP DP  RH WIND       PRES   REMARKS
DULUTH         CLEAR     36  26  67 NW6       30.21S
6HR MIN TEMP:  27; 6HR MAX TEMP:  36;

ELY            CLEAR     27  25  93 CALM      30.23R
HIBBING        CLEAR     26  21  81 CALM      30.21F
EVELETH        CLEAR     27  23  86 CALM      30.22F
DULUTH HARBOR  CLEAR     34  28  80 SW5       30.23S WCI  30
TWO HARBORS    CLEAR     43  28  56 NW6       30.20S
SILVER BAY     CLEAR     32  28  86 CALM      30.20S
GRAND MARAIS     N/A     45  27  49 N7        30.21R
G MARAIS ARPRT SUNNY     36  25  64 N3        30.21R
$$
MNZ029>031-032-039>041-046>048-054>057-064-271300-
   West Central Minnesota

CITY           SKY/WX    TMP DP  RH WIND       PRES   REMARKS
FERGUS FALLS   CLEAR     37  27  65 E5        30.24R
WHEATON        CLEAR     32  23  69 CALM      30.23S
MORRIS         CLEAR     34  27  75 CALM      30.21R
ALEXANDRIA     CLEAR     35  28  75 CALM      30.22R
ELBOW LAKE     FAIR      40  28  62 CALM      30.21R
WADENA         CLEAR     28  23  80 CALM      30.21R
GLENWOOD       CLEAR     36  28  75 CALM      30.22S
APPLETON       CLEAR     32  27  80 CALM      30.22R
BENSON         CLEAR     30  27  86 CALM      30.21S
ORTONVILLE     CLEAR     34  27  75 CALM      30.21R
MADISON        CLEAR     32  25  74 CALM      30.22R
WILLMAR        FAIR      36  28  75 CALM      30.22S
$$
MNZ033>034-036-042>043-049>051-058-059-271300-
   Central Minnesota

CITY           SKY/WX    TMP DP  RH WIND       PRES   REMARKS
ST CLOUD       CLEAR     32  25  75 CALM      30.22R
6HR MIN TEMP:  28; 6HR MAX TEMP:  38;

SAUK CENTRE    FAIR      30  25  83 CALM      30.21S
PAYNESVILLE    CLEAR     28  26  93 CALM      30.22R
AITKIN         CLEAR     28  23  80 CALM      30.20S
PINE RIVER     CLEAR     27  25  93 CALM      30.23F
BRAINERD       CLEAR     28  23  81 CALM      30.21S
STAPLES        CLEAR     28  25  86 CALM      30.21S
LONG PRAIRIE   FAIR      32  25  74 CALM      30.22S
LITTLE FALLS   CLEAR     28  27  93 CALM      30.22S
LITCHFIELD     CLEAR     37  30  75 CALM      30.22R
BUFFALO        CLEAR     35  29  77 CALM      30.22R
MAPLE LAKE     CLEAR     33  30  89 CALM      30.22S
$$
MNZ037-044-045-052-053-271300-
   East Central Minnesota

CITY           SKY/WX    TMP DP  RH WIND       PRES   REMARKS
PRINCETON      CLEAR     30  27  86 CALM      30.22S
MORA           CLEAR     28  23  80 CALM      30.23S
CAMBRIDGE      CLEAR     32  25  74 CALM      30.20S
RUSH CITY      CLEAR     31  26  81 CALM      30.22S
MOOSE LAKE     CLEAR     28  27  93 CALM      30.21R
HINCKLEY       FAIR      30  27  86 CALM      30.22S
CLOQUET        CLEAR     28  23  80 NW5       30.21F WCI  23
MCGREGOR       CLEAR     30  27  86 CALM      30.22S
$$
MNZ071>073-080-081-089-090-097-098-271300-
   Southwest Minnesota

CITY           SKY/WX    TMP DP  RH WIND       PRES   REMARKS
MONTEVIDEO     CLEAR     36  21  55 NW5       30.22S
GRANITE FALLS  CLEAR     29  19  67 CALM      30.23R
CANBY          CLEAR     32  28  84 CALM      30.23R
MARSHALL       CLEAR     30  19  64 CALM      30.21R
REDWOOD FALLS  CLEAR     36  23  59 CALM      30.21R
OLIVIA         CLEAR     32  21  64 CALM      30.21R
PIPESTONE      CLEAR     37  21  52 CALM      30.20R
WINDOM         CLEAR     34  21  60 CALM      30.20R
WORTHINGTON    CLEAR     34  19  55 NW6       30.21R WCI  29
JACKSON        CLEAR     32  23  69 NW3       30.21R
TRACY          CLEAR     35  22  58 CALM      30.21S
SLAYTON        CLEAR     31  22  68 CALM      30.21R
$$
MNZ065>067-074>077-082>085-091>093-271300-
   South Central Minnesota

CITY           SKY/WX    TMP DP  RH WIND       PRES   REMARKS
MANKATO        CLEAR     39  23  52 N6        30.20R
NEW ULM        CLEAR     34  21  60 CALM      30.21R
ST JAMES       CLEAR     34  23  64 W3        30.22R
FAIRMONT       CLEAR     36  25  64 NW6       30.19R
GLENCOE        CLEAR     34  27  75 CALM      30.20R
FARIBAULT      CLEAR     37  27  65 CALM      30.19R
OWATONNA       CLEAR     34  27  75 CALM      30.19R
WASECA         CLEAR     34  27  75 N7        30.19R WCI  28
ALBERT LEA     CLEAR     37  27  65 CALM      30.18R
$$
MNZ078>079-086>088-094>096-271300-
   Southeast Minnesota

CITY           SKY/WX    TMP DP  RH WIND       PRES   REMARKS
ROCHESTER      CLEAR     38  27  64 N7        30.18R
6HR MIN TEMP:  36; 6HR MAX TEMP:  44;

RED WING       CLEAR     36  30  80 CALM      30.19R
STANTON        CLEAR     32  26  80 CALM      30.18S
DODGE CENTER   CLEAR     37  28  70 N6        30.17R
WINONA         CLEAR     41  32  70 CALM      30.18R
AUSTIN         CLEAR     36  28  75 N3        30.17R
PRESTON        CLEAR     36  28  72 N3        30.17R
$$
ABBREVIATIONS USED IN REMARKS
   TC - TEMPERATURES IN CELSIUS
  WCI - WIND CHILL INDEX
   HX - HEAT INDEX
  VSB - VISIBILITY
$$


USA.gov is the U.S. government's official web portal to all federal, state and local government web resources and services.